Theta_e
320 321 322 321 320 322 327 328 330 330 330 329 328 326 325 324 322 315 311 319 318 330 322 315 314 315 317 313 310 310 308 302 304 300 302 305 307 306 309 313 316 318 317 322 332
318 320 320 320 321 321 326 328 328 329 330 328 326 326 326 323 313 308 319 323 327 328 313 314 308 313 311 311 311 309 307 307 308 304 303 303 305 306 306 310 311 314 320 329 331
317 318 319 320 320 319 326 326 327 328 328 326 324 325 324 322 308 310 326 327 328 324 318 315 312 313 307 311 308 307 307 308 305 303 303 303 303 305 306 305 311 311 318 326 328
315 315 318 318 320 321 325 325 327 327 327 325 323 325 321 315 301 315 328 328 329 315 312 312 313 310 307 306 308 302 306 307 306 305 302 303 304 302 305 308 307 312 321 326 326
314 315 314 316 319 321 325 325 326 327 325 324 323 323 316 307 309 315 328 327 318 309 308 310 309 310 308 310 306 305 305 304 307 303 303 303 302 302 303 308 308 310 321 325 327
314 315 316 315 319 320 324 325 326 326 325 324 323 323 313 304 316 315 321 318 311 309 307 312 312 314 311 309 310 310 306 304 302 302 303 305 304 302 306 307 307 313 319 323 326
313 314 314 314 316 320 322 324 325 325 325 326 325 319 312 310 316 320 319 315 311 310 305 308 314 314 311 304 306 306 303 303 304 302 303 303 304 300 309 305 306 311 316 321 324
312 312 313 315 316 319 322 323 324 325 326 327 326 320 308 312 316 320 316 314 314 311 313 311 311 310 307 309 304 305 305 301 307 303 303 303 301 308 308 304 307 309 313 318 322
310 311 312 316 317 319 322 322 323 325 326 326 317 312 302 313 309 318 315 310 312 312 312 309 310 305 304 303 301 302 300 300 304 302 300 299 302 305 305 304 307 308 310 315 318
311 311 313 317 319 320 321 322 322 324 323 320 313 304 300 305 309 315 318 314 309 309 307 305 301 300 301 301 295 297 299 298 301 301 297 297 297 303 303 301 304 306 307 312 316
310 311 313 319 319 321 320 317 310 309 312 302 303 308 303 308 313 311 315 310 307 305 298 302 295 293 298 303 303 302 299 299 300 303 300 301 300 304 307 303 303 304 304 306 312
309 309 313 319 320 321 317 309 310 309 301 306 308 300 305 311 301 309 314 303 302 296 300 297 294 301 303 301 300 301 299 297 299 299 298 302 301 305 306 305 306 308 308 305 306
308 308 309 319 319 317 312 312 314 315 300 301 306 300 303 309 303 304 309 304 300 296 296 295 298 299 298 297 295 297 297 294 295 293 294 293 294 298 302 302 304 305 308 311 307
307 307 308 318 313 313 310 315 315 312 290 292 295 298 300 306 299 305 310 303 299 295 296 297 299 295 296 295 298 292 297 294 290 291 291 292 289 297 300 300 301 301 303 303 304
307 305 307 308 312 308 313 315 313 309 280 291 294 303 300 302 299 298 302 301 297 296 297 294 295 294 293 295 297 295 296 294 293 291 291 293 288 295 295 294 298 302 303 305 306
306 305 306 305 310 313 316 313 309 290 281 286 292 291 294 297 299 296 295 298 300 297 298 295 298 299 297 297 297 294 294 294 292 292 285 292 290 292 296 297 300 301 303 304 304
305 305 302 304 302 315 313 306 288 283 286 283 287 293 293 292 293 295 290 291 290 287 288 289 293 293 298 293 295 294 291 284 282 282 284 288 288 292 298 297 297 298 300 302 304
303 304 302 303 306 313 309 296 283 284 285 290 291 294 290 293 294 294 290 290 292 297 292 285 283 288 292 295 291 291 292 285 280 280 285 283 285 293 298 300 300 299 301 300 299
302 301 298 302 306 310 300 285 285 287 288 288 290 287 286 290 291 291 291 291 294 294 291 289 286 290 293 292 296 290 287 292 284 278 282 286 289 294 296 296 297 297 298 299 301
299 297 294 301 305 299 295 287 287 292 293 292 287 290 285 288 290 292 291 296 294 293 296 292 283 288 289 294 292 294 296 286 287 281 280 285 285 289 291 294 297 298 299 300 300
297 290 296 304 302 292 286 287 289 294 295 292 289 289 289 288 291 291 291 293 296 291 293 293 290 284 289 289 288 289 289 289 290 287 283 282 287 297 295 297 296 298 297 298 299
294 284 299 300 286 286 288 287 293 292 296 291 293 292 291 290 290 290 289 291 296 294 290 291 288 283 285 289 291 293 290 290 286 283 285 284 286 294 295 295 294 296 297 298 298
286 288 299 296 284 285 291 288 292 292 292 291 290 292 294 290 286 291 291 295 297 294 292 290 287 281 282 287 288 287 289 292 291 287 284 283 286 298 298 298 299 296 298 299 298
289 285 287 291 286 286 287 287 288 293 290 290 290 293 291 289 290 289 289 291 295 294 295 295 287 286 282 285 288 285 287 288 289 285 285 285 288 293 295 295 297 297 296 297 298
287 284 285 283 285 286 288 289 287 286 291 292 289 291 291 287 287 287 289 289 292 295 294 293 286 286 286 288 288 288 287 287 286 288 285 288 288 292 295 296 297 299 297 296 296
286 285 286 285 285 286 286 287 287 288 289 288 288 291 291 288 289 285 289 290 289 292 292 291 287 288 283 286 286 285 288 288 288 289 289 290 289 296 298 297 297 297 298 297 297
290 289 288 285 285 285 286 287 289 291 291 292 291 290 289 290 294 293 295 293 293 291 290 290 286 284 283 286 287 283 286 288 289 290 291 286 291 296 295 295 296 297 298 298 299
Wind_Speed
24 25 23 27 22 28 28 24 24 25 23 21 18 16 12 11 12 11 14 5 5 12 8 6 2 3 4 3 2 2 3 4 6 4 5 4 5 1 1 6 2 4 1 2 18
22 25 22 23 24 23 31 27 26 26 25 24 22 16 13 12 6 12 6 6 7 12 11 15 9 10 5 5 3 5 6 7 3 5 6 3 4 4 5 5 5 5 4 10 16
21 23 20 24 27 23 30 27 26 29 25 26 25 18 12 7 7 11 12 7 9 9 12 10 7 5 4 6 5 4 6 6 6 6 3 4 3 0 3 5 7 10 13 15 17
12 15 22 22 28 28 33 30 28 28 27 27 27 23 10 1 13 3 17 11 10 7 11 10 9 4 5 10 6 5 3 6 8 6 2 3 4 1 5 2 2 6 13 19 19
16 22 20 23 23 29 32 30 29 30 28 28 28 25 11 6 3 3 13 15 12 7 11 14 11 6 9 7 7 5 3 3 5 7 4 3 3 1 9 9 5 3 13 19 19
18 21 19 22 25 32 32 30 29 32 29 28 28 25 11 16 7 2 15 13 12 10 8 12 12 8 2 7 12 5 6 4 5 3 3 6 3 3 4 2 3 6 14 16 20
17 19 16 25 29 34 34 32 30 33 31 30 30 17 8 13 7 8 14 7 5 9 7 4 8 11 9 5 3 5 5 3 6 4 5 5 8 10 9 3 4 8 11 14 16
19 18 25 36 32 38 39 35 30 30 31 32 32 14 7 2 8 13 14 9 6 4 10 7 5 6 1 7 5 9 5 6 5 9 2 4 15 10 8 6 9 10 11 12 15
17 22 35 29 34 35 34 32 28 31 31 31 16 10 7 6 11 12 18 14 8 7 6 5 4 5 5 12 6 8 9 14 7 4 3 9 9 5 5 9 14 12 12 13 14
17 23 31 33 36 35 33 31 28 30 26 18 7 10 4 15 9 13 13 20 10 13 7 6 3 9 10 14 16 13 17 6 10 4 5 6 17 14 9 7 11 11 12 13 15
14 22 31 29 39 36 30 24 21 18 26 9 22 16 21 14 11 7 20 17 5 17 12 8 10 18 20 19 7 8 8 13 5 4 4 12 18 19 15 13 16 15 12 13 16
8 17 15 27 39 35 23 27 39 10 19 2 25 7 14 20 10 17 22 17 16 19 12 9 20 17 14 12 10 9 9 6 3 3 3 13 21 22 18 17 19 21 19 15 15
2 12 26 37 36 25 25 36 19 18 9 4 23 14 16 25 18 22 25 13 23 17 19 17 10 14 16 15 12 12 11 4 3 1 2 8 19 24 17 19 19 20 19 18 17
4 10 26 35 28 25 26 24 24 8 6 10 12 8 10 15 8 7 14 12 9 24 17 6 10 17 17 19 18 13 7 8 5 3 9 0 11 14 13 13 14 18 19 20 19
4 7 12 15 15 25 19 21 21 5 13 13 7 12 12 20 23 14 2 4 21 16 12 10 14 20 21 21 19 7 13 11 5 4 7 10 9 7 5 10 15 18 18 21 18
1 6 10 6 3 25 24 23 11 11 7 9 9 14 19 8 14 9 5 6 5 16 6 6 4 14 15 12 16 19 12 8 5 5 10 13 11 12 12 15 12 10 14 18 19
6 11 5 4 2 21 25 18 13 17 10 9 12 21 24 15 12 22 15 15 12 13 12 6 7 3 9 14 6 12 16 4 4 5 9 2 12 18 8 8 8 9 10 11 13
8 11 5 4 7 23 18 16 13 8 8 6 23 25 17 24 14 19 18 13 6 12 12 12 8 11 5 10 11 10 10 6 7 7 2 1 13 7 8 10 11 12 15 12 11
4 3 1 4 4 11 21 17 7 17 11 19 25 19 14 13 12 15 20 20 13 12 14 15 9 6 8 7 16 6 9 3 4 3 2 7 10 14 13 15 12 11 8 14 13
2 3 1 7 4 4 17 7 7 14 23 29 23 16 21 24 21 25 25 23 20 14 6 10 7 3 4 7 2 14 16 6 5 7 8 9 9 15 2 6 9 14 16 10 8
1 3 2 5 2 3 13 4 11 22 29 26 23 21 20 32 22 29 29 8 21 13 6 10 3 5 11 14 17 11 11 5 7 6 6 7 9 6 14 12 8 7 5 9 8
1 3 4 2 3 2 8 11 12 25 22 8 9 13 24 26 17 20 22 10 20 19 14 4 6 7 20 2 5 16 13 17 8 9 5 4 12 8 7 5 5 8 9 7 8
3 2 2 1 3 2 9 10 15 28 21 12 10 6 22 22 11 14 15 14 24 25 24 11 6 8 6 4 3 15 12 20 10 3 9 7 13 10 16 15 12 12 12 13 10
2 3 2 2 1 1 8 14 17 9 8 7 10 20 22 17 8 16 16 8 17 17 7 12 3 9 13 7 11 14 17 14 18 8 18 13 23 25 20 18 10 8 6 8 8
2 3 1 2 3 2 2 11 25 14 3 11 7 21 18 11 13 13 10 9 11 13 7 11 11 4 1 6 7 8 19 20 23 29 19 25 25 35 30 16 14 14 11 10 11
2 3 1 2 4 3 1 10 31 12 10 16 16 25 17 17 17 17 14 12 12 7 14 5 3 9 4 4 4 2 21 22 27 28 25 28 22 36 19 10 13 13 13 12 16
1 1 1 3 3 2 2 8 17 15 6 7 21 20 8 13 14 18 13 14 17 22 23 15 8 5 6 7 4 12 23 22 20 26 22 27 36 19 21 12 14 14 16 18 20
Wind_Direction
248 240 233 224 227 253 207 194 188 191 176 163 157 159 159 139 145 163 189 192 195 151 124 138 114 174 111 100 90 245 168 212 204 167 111 143 198 106 120 135 172 165 286 58 140
250 239 237 227 231 241 211 193 191 183 171 158 154 155 160 151 177 185 148 182 161 146 151 172 162 164 141 137 160 204 211 206 192 128 127 122 225 156 197 156 180 183 134 137 146
257 245 242 231 229 227 218 195 191 181 169 159 157 159 148 165 167 208 173 161 158 161 168 170 150 176 131 156 172 184 209 169 168 108 133 121 122 328 213 209 206 212 168 163 167
252 270 244 258 228 229 228 195 187 177 172 161 163 150 136 37 181 155 161 145 147 152 152 158 179 131 144 174 169 180 198 188 147 133 146 118 107 304 254 302 58 234 171 167 180
244 249 253 266 240 225 222 191 185 175 173 163 158 148 141 207 219 250 165 138 139 147 163 175 168 173 180 198 162 203 162 167 130 145 141 155 91 35 264 294 272 201 175 182 187
259 248 252 246 248 220 217 189 185 170 170 165 158 154 170 202 118 202 155 134 143 168 178 176 180 177 188 203 206 181 170 140 162 172 196 259 219 204 223 13 202 212 205 195 196
251 250 252 272 256 212 207 192 184 179 171 166 158 161 178 168 156 153 146 117 105 178 161 201 166 173 159 153 225 133 163 154 179 187 217 212 237 224 244 200 239 224 231 217 207
250 276 282 264 236 206 202 190 178 172 170 159 159 177 175 117 158 145 131 105 132 173 182 166 159 138 261 133 147 188 218 206 168 181 193 230 255 229 221 209 247 237 227 228 221
271 267 294 224 209 195 179 181 171 166 163 154 162 174 164 117 163 156 151 142 135 136 108 132 138 130 125 176 167 193 211 212 212 191 165 227 268 266 249 229 252 234 224 224 226
272 262 297 192 190 180 173 172 169 159 149 155 140 118 203 182 138 153 174 140 141 140 110 149 97 176 190 198 208 190 213 215 213 144 205 229 263 262 247 243 254 257 240 223 225
278 310 277 202 183 178 165 164 161 181 175 168 159 187 135 133 131 160 153 139 111 165 174 176 184 200 188 206 233 196 209 218 148 168 235 244 261 268 262 248 256 252 243 244 238
274 302 311 184 168 164 170 176 179 149 154 220 163 91 140 145 120 153 163 155 165 177 155 159 212 195 191 179 179 170 186 194 197 151 218 272 267 268 261 251 247 254 248 239 240
297 312 308 184 165 161 176 180 135 149 132 166 160 153 160 167 157 162 172 154 171 168 182 181 191 163 174 185 184 205 210 162 260 101 200 291 271 264 252 241 240 240 250 253 233
326 349 333 163 165 164 194 156 148 141 119 166 179 162 145 140 137 146 174 145 178 185 178 213 145 169 184 194 196 201 188 162 141 215 265 5 283 273 271 266 248 244 238 235 234
249 16 352 327 157 170 168 152 150 102 192 161 171 139 153 161 133 193 134 51 167 170 167 171 164 174 184 188 184 191 169 189 189 265 309 225 270 267 263 270 259 252 241 240 234
259 91 318 286 206 167 146 144 147 179 182 145 149 165 143 158 154 132 158 65 102 145 180 150 212 181 192 166 176 139 122 63 59 233 254 246 231 259 254 256 259 262 258 241 234
281 128 312 338 95 148 139 151 177 200 144 148 158 163 141 151 136 159 162 159 154 144 176 138 169 120 161 139 151 155 144 127 179 195 246 338 217 250 270 252 258 273 277 255 253
275 121 349 310 334 161 157 173 193 131 137 159 154 155 146 148 149 162 158 167 203 188 164 164 195 177 172 180 162 163 167 166 206 205 247 128 236 251 229 266 263 275 260 277 266
225 94 41 326 330 195 167 183 145 145 150 138 147 135 136 144 132 147 186 187 174 185 167 183 175 151 181 147 143 142 202 132 91 45 244 214 259 276 233 251 256 255 263 260 259
130 108 71 290 303 261 182 150 117 145 146 151 143 158 154 164 153 178 182 200 183 188 176 165 124 230 166 128 93 180 145 163 202 209 238 232 265 252 199 215 252 254 255 262 293
113 79 251 252 38 318 176 115 130 157 151 159 158 156 170 163 171 182 182 161 179 168 140 157 106 133 163 206 174 152 179 183 167 217 230 264 247 242 231 239 250 271 276 279 280
49 105 306 40 108 78 160 144 143 149 160 99 145 140 167 158 159 176 184 163 165 165 161 171 115 146 187 52 252 202 193 180 188 192 249 301 270 160 214 220 222 252 284 287 290
98 153 78 57 110 131 131 144 150 155 160 152 143 156 170 165 140 178 175 195 176 174 177 172 137 115 150 228 176 219 206 207 220 74 199 199 255 199 234 262 260 256 278 283 307
128 144 89 98 78 350 131 143 148 143 113 94 121 126 140 164 106 179 161 163 184 183 138 150 140 192 188 194 152 199 205 208 212 225 232 224 255 262 256 255 267 284 265 281 283
344 62 137 87 206 190 346 142 152 161 110 138 140 157 151 148 164 172 150 130 173 175 156 170 203 175 113 128 154 190 193 193 202 222 218 237 230 259 254 266 266 276 280 275 266
97 139 9 65 29 108 282 167 162 154 156 177 154 162 158 154 178 153 153 150 160 168 181 195 216 175 153 109 82 212 208 201 211 225 232 247 253 244 280 271 261 261 276 280 280
92 98 68 48 117 245 181 162 173 143 13 142 145 150 146 140 138 150 155 150 161 172 186 180 147 142 213 130 69 269 220 206 211 221 224 233 242 260 273 266 248 255 254 257 260